千帆星座-103(QIANFAN-103)

导读

QIANFAN-103是一颗由中国发射的卫星,于2025年10月17日成功进入预定轨道。作为中国航天领域的最新发射成果,该卫星承载着特定的航天科研或应用任务,进一步充实了中国卫星网络布局,体现了中国在航天发射领域的成熟技术与持续探索能力,将为相关领域的发展提供空间支持。

基本信息
目录编号:
66045
目录名称:
QIANFAN-103
国际标识:
2025-233N
轨道中心:
EARTH
卫星名称:
千帆星座-103
卫星全名:
千帆星座-103(QIANFAN-103)
卫星状态:
在轨 (已飞行284 天)
发射日期:
2025-10-17 UTC
国别 :
中国 (CN)
星等 :
--
轨道信息
数据来源 国际轨道数据 AOE轨道数据
星历时间 2026-07-27T10:27:15+0800
1天前
查看轨道信息
2026-07-27T08:00:00+0800
1天前
查看轨道信息
半长轴 7446.657km 7446.656km
偏心率 0.0002132 0.0002076
轨道倾角 88.999° 88.999°
近地点辐角 94.824° 93.648°
升交点赤经 39.159° 39.169°
平近点角 265.315° 129.444°
近地点 1066.932km 1066.973km
远地点 1070.108km 1070.065km
周期 106.586分钟 106.586分钟
每日圈数 13.51017 13.510172
详细信息
卫星平台:
103
覆盖范围:
全球
运营商:
上海垣信卫星科技有限公司
运营商所在国:
中国
使用方式:
暂无
卫星简介
千帆星座,也被称为“G60星链”计划,是中国版“星链”的重要组成部分,旨在打造一个由1.4万多颗低轨宽频多媒体卫星构成的庞大星座。千帆星座计划由上海垣信卫星科技有限公司负责实施,于2023年启动建设。该项目是我国第二个低轨卫星大星座,旨在通过构建庞大的卫星网络,为全球用户提供高质量的通信和宽带互联网服务。
2D轨道图
3D轨道图
轨道高度分析图
轨道倾角分析图
轨道综合分析图
查看轨道综合分析图